Time,TemperatureF,DewpointF,PressureIn,WindDirection,WindDirectionDegrees,WindSpeedMPH,WindSpeedGustMPH,Humidity,HourlyPrecipIn,Conditions,Clouds,dailyrainin,SoftwareType,DateUTC
2013-04-03 00:03:00,28.0,11.0,-100.00,NW,305,4.0,6.0,48,-99.99,,,-99.99,,2013-04-03 04:03:00,
2013-04-03 00:12:00,27.0,10.0,-100.00,WNW,295,3.0,6.0,48,-99.99,,,-99.99,,2013-04-03 04:12:00,
2013-04-03 00:23:00,27.0,11.0,-100.00,NW,310,4.0,6.0,49,-99.99,,,-99.99,,2013-04-03 04:23:00,
2013-04-03 00:33:00,27.0,11.0,-100.00,NW,315,4.0,7.0,50,-99.99,,,-99.99,,2013-04-03 04:33:00,
2013-04-03 00:43:00,27.0,11.0,-100.00,NW,320,4.0,6.0,51,-99.99,,,-99.99,,2013-04-03 04:43:00,
2013-04-03 00:53:00,27.0,11.0,-100.00,NW,305,4.0,7.0,51,-99.99,,,-99.99,,2013-04-03 04:53:00,
2013-04-03 01:02:00,26.0,11.0,-100.00,WNW,300,4.0,6.0,52,-99.99,,,-99.99,,2013-04-03 05:02:00,
2013-04-03 01:12:00,26.0,11.0,-100.00,NW,305,5.0,6.0,53,-99.99,,,-99.99,,2013-04-03 05:12:00,
2013-04-03 01:22:00,26.0,11.0,-100.00,NW,305,4.0,6.0,54,-99.99,,,-99.99,,2013-04-03 05:22:00,
2013-04-03 01:32:00,25.0,11.0,-100.00,WNW,300,4.0,6.0,55,-99.99,,,-99.99,,2013-04-03 05:32:00,
2013-04-03 01:42:00,25.0,12.0,-100.00,WNW,300,4.0,4.0,56,-99.99,,,-99.99,,2013-04-03 05:42:00,
2013-04-03 01:52:00,25.0,12.0,-100.00,NW,305,5.0,6.0,57,-99.99,,,-99.99,,2013-04-03 05:52:00,
2013-04-03 02:02:00,25.0,12.0,-100.00,NW,305,4.0,6.0,58,-99.99,,,-99.99,,2013-04-03 06:02:00,
2013-04-03 02:12:00,25.0,13.0,-100.00,NW,310,4.0,6.0,58,-99.99,,,-99.99,,2013-04-03 06:12:00,
2013-04-03 02:22:00,25.0,13.0,-100.00,NW,310,4.0,5.0,59,-99.99,,,-99.99,,2013-04-03 06:22:00,
2013-04-03 02:32:00,24.0,13.0,-100.00,NW,310,4.0,5.0,60,-99.99,,,-99.99,,2013-04-03 06:32:00,
2013-04-03 02:42:00,25.0,13.0,-100.00,NW,310,4.0,6.0,60,-99.99,,,-99.99,,2013-04-03 06:42:00,
2013-04-03 02:52:00,24.0,13.0,-100.00,NW,305,5.0,7.0,61,-99.99,,,-99.99,,2013-04-03 06:52:00,
2013-04-03 03:02:00,24.0,13.0,-100.00,NW,310,4.0,7.0,62,-99.99,,,-99.99,,2013-04-03 07:02:00,
2013-04-03 03:12:00,24.0,13.0,-100.00,West,280,4.0,6.0,63,-99.99,,,-99.99,,2013-04-03 07:12:00,
2013-04-03 03:23:00,23.0,13.0,-100.00,WNW,285,2.0,3.0,64,-99.99,,,-99.99,,2013-04-03 07:23:00,
2013-04-03 03:33:00,22.0,13.0,-100.00,WNW,295,4.0,4.0,65,-99.99,,,-99.99,,2013-04-03 07:33:00,
2013-04-03 03:42:00,23.0,13.0,-100.00,WNW,285,4.0,4.0,66,-99.99,,,-99.99,,2013-04-03 07:42:00,
2013-04-03 03:52:00,23.0,14.0,-100.00,WNW,295,4.0,4.0,67,-99.99,,,-99.99,,2013-04-03 07:52:00,
2013-04-03 04:03:00,23.0,14.0,-100.00,WNW,290,4.0,4.0,67,-99.99,,,-99.99,,2013-04-03 08:03:00,
2013-04-03 04:12:00,23.0,14.0,-100.00,NW,305,4.0,6.0,68,-99.99,,,-99.99,,2013-04-03 08:12:00,
2013-04-03 04:22:00,23.0,15.0,-100.00,WNW,295,4.0,6.0,68,-99.99,,,-99.99,,2013-04-03 08:22:00,
2013-04-03 04:32:00,23.0,15.0,-100.00,NW,305,4.0,6.0,68,-99.99,,,-99.99,,2013-04-03 08:32:00,
2013-04-03 04:42:00,24.0,15.0,-100.00,NW,305,4.0,6.0,68,-99.99,,,-99.99,,2013-04-03 08:42:00,
2013-04-03 04:52:00,24.0,15.0,-100.00,NW,305,5.0,6.0,68,-99.99,,,-99.99,,2013-04-03 08:52:00,
2013-04-03 05:02:00,22.0,13.0,-100.00,WSW,255,2.0,5.0,68,-99.99,,,-99.99,,2013-04-03 09:02:00,
2013-04-03 05:12:00,20.0,12.0,-100.00,WSW,245,2.0,4.0,70,-99.99,,,-99.99,,2013-04-03 09:12:00,
2013-04-03 05:22:00,19.0,11.0,-100.00,WSW,255,3.0,4.0,72,-99.99,,,-99.99,,2013-04-03 09:22:00,
2013-04-03 05:33:00,19.0,12.0,-100.00,West,275,4.0,5.0,73,-99.99,,,-99.99,,2013-04-03 09:33:00,
2013-04-03 05:43:00,21.0,14.0,-100.00,WNW,290,4.0,6.0,75,-99.99,,,-99.99,,2013-04-03 09:43:00,
2013-04-03 05:53:00,21.0,15.0,-100.00,West,270,3.0,6.0,75,-99.99,,,-99.99,,2013-04-03 09:53:00,
2013-04-03 06:03:00,20.0,14.0,-100.00,West,270,4.0,6.0,76,-99.99,,,-99.99,,2013-04-03 10:03:00,
2013-04-03 06:12:00,21.0,15.0,-100.00,WNW,290,5.0,6.0,77,-99.99,,,-99.99,,2013-04-03 10:12:00,
2013-04-03 06:22:00,22.0,16.0,-100.00,WNW,290,6.0,7.0,76,-99.99,,,-99.99,,2013-04-03 10:22:00,
2013-04-03 06:33:00,22.0,16.0,-100.00,WNW,295,6.0,7.0,76,-99.99,,,-99.99,,2013-04-03 10:33:00,
2013-04-03 06:43:00,22.0,16.0,-100.00,WNW,290,5.0,6.0,76,-99.99,,,-99.99,,2013-04-03 10:43:00,
2013-04-03 06:52:00,22.0,16.0,-100.00,West,280,4.0,6.0,76,-99.99,,,-99.99,,2013-04-03 10:52:00,
2013-04-03 07:02:00,22.0,16.0,-100.00,WNW,290,6.0,6.0,76,-99.99,,,-99.99,,2013-04-03 11:02:00,
2013-04-03 07:12:00,22.0,16.0,-100.00,WNW,290,6.0,6.0,76,-99.99,,,-99.99,,2013-04-03 11:12:00,
2013-04-03 07:23:00,22.0,16.0,-100.00,WNW,295,6.0,6.0,76,-99.99,,,-99.99,,2013-04-03 11:23:00,
2013-04-03 07:32:00,22.0,16.0,-100.00,WNW,290,5.0,6.0,76,-99.99,,,-99.99,,2013-04-03 11:32:00,
2013-04-03 07:42:00,22.0,16.0,-100.00,WNW,285,4.0,6.0,76,-99.99,,,-99.99,,2013-04-03 11:42:00,
2013-04-03 07:52:00,22.0,16.0,-100.00,WNW,290,6.0,7.0,76,-99.99,,,-99.99,,2013-04-03 11:52:00,
2013-04-03 08:02:00,23.0,17.0,-100.00,West,275,5.0,6.0,76,-99.99,,,-99.99,,2013-04-03 12:02:00,
2013-04-03 08:13:00,24.0,17.0,-100.00,WNW,290,5.0,6.0,75,-99.99,,,-99.99,,2013-04-03 12:13:00,
2013-04-03 08:22:00,24.0,17.0,-100.00,WNW,295,6.0,6.0,74,-99.99,,,-99.99,,2013-04-03 12:22:00,
2013-04-03 08:33:00,25.0,18.0,-100.00,WNW,290,7.0,9.0,74,-99.99,,,-99.99,,2013-04-03 12:33:00,
2013-04-03 08:42:00,26.0,19.0,-100.00,WNW,295,7.0,9.0,74,-99.99,,,-99.99,,2013-04-03 12:42:00,
2013-04-03 08:52:00,27.0,19.0,-100.00,WNW,300,7.0,10.0,73,-99.99,,,-99.99,,2013-04-03 12:52:00,
2013-04-03 09:02:00,28.0,20.0,-100.00,WNW,295,9.0,12.0,71,-99.99,,,-99.99,,2013-04-03 13:02:00,
2013-04-03 09:12:00,29.0,21.0,-100.00,WNW,300,7.0,12.0,70,-99.99,,,-99.99,,2013-04-03 13:12:00,
2013-04-03 09:22:00,30.0,21.0,-100.00,NW,305,9.0,12.0,68,-99.99,,,-99.99,,2013-04-03 13:22:00,
2013-04-03 09:32:00,31.0,22.0,-100.00,NW,315,7.0,13.0,67,-99.99,,,-99.99,,2013-04-03 13:32:00,
2013-04-03 09:42:00,32.0,22.0,-100.00,NW,305,7.0,18.0,66,-99.99,,,-99.99,,2013-04-03 13:42:00,
2013-04-03 09:52:00,33.0,22.0,-100.00,NW,325,7.0,16.0,65,-99.99,,,-99.99,,2013-04-03 13:52:00,
2013-04-03 10:02:00,32.0,22.0,-100.00,NW,310,10.0,16.0,64,-99.99,,,-99.99,,2013-04-03 14:02:00,
2013-04-03 10:22:00,34.0,21.0,-100.00,NW,320,7.0,12.0,59,-99.99,,,-99.99,,2013-04-03 14:22:00,
2013-04-03 10:32:00,35.0,20.0,-100.00,NW,325,7.0,17.0,54,-99.99,,,-99.99,,2013-04-03 14:32:00,
2013-04-03 10:42:00,36.0,20.0,-100.00,North,0,6.0,12.0,51,-99.99,,,-99.99,,2013-04-03 14:42:00,
2013-04-03 10:52:00,36.0,19.0,-100.00,NNW,345,7.0,13.0,50,-99.99,,,-99.99,,2013-04-03 14:52:00,
2013-04-03 11:02:00,36.0,19.0,-100.00,North,355,7.0,14.0,49,-99.99,,,-99.99,,2013-04-03 15:02:00,
2013-04-03 11:12:00,37.0,19.0,-100.00,North,0,7.0,14.0,47,-99.99,,,-99.99,,2013-04-03 15:12:00,
2013-04-03 11:23:00,37.0,19.0,-100.00,North,0,7.0,14.0,47,-99.99,,,-99.99,,2013-04-03 15:23:00,
2013-04-03 11:33:00,37.0,17.0,-100.00,NW,305,9.0,16.0,44,-99.99,,,-99.99,,2013-04-03 15:33:00,
2013-04-03 11:42:00,38.0,17.0,-100.00,North,0,7.0,14.0,43,-99.99,,,-99.99,,2013-04-03 15:42:00,
2013-04-03 11:53:00,38.0,17.0,-100.00,North,0,7.0,13.0,41,-99.99,,,-99.99,,2013-04-03 15:53:00,
2013-04-03 12:03:00,37.0,14.0,-100.00,NW,320,13.0,19.0,38,-99.99,,,-99.99,,2013-04-03 16:03:00,
2013-04-03 12:13:00,39.0,15.0,-100.00,North,0,9.0,17.0,37,-99.99,,,-99.99,,2013-04-03 16:13:00,
2013-04-03 12:24:00,39.0,14.0,-100.00,NW,315,9.0,17.0,35,-99.99,,,-99.99,,2013-04-03 16:24:00,
2013-04-03 12:33:00,40.0,14.0,-100.00,NW,305,7.0,16.0,33,-99.99,,,-99.99,,2013-04-03 16:33:00,
2013-04-03 12:43:00,40.0,14.0,-100.00,NNW,345,7.0,20.0,33,-99.99,,,-99.99,,2013-04-03 16:43:00,
2013-04-03 12:52:00,40.0,13.0,-100.00,NW,325,7.0,15.0,32,-99.99,,,-99.99,,2013-04-03 16:52:00,
2013-04-03 13:03:00,41.0,13.0,-100.00,NNW,330,7.0,21.0,31,-99.99,,,-99.99,,2013-04-03 17:03:00,
2013-04-03 13:13:00,42.0,13.0,-100.00,North,0,6.0,14.0,31,-99.99,,,-99.99,,2013-04-03 17:13:00,
2013-04-03 13:23:00,41.0,12.0,-100.00,NW,320,8.0,17.0,30,-99.99,,,-99.99,,2013-04-03 17:23:00,
2013-04-03 13:33:00,40.0,12.0,-100.00,North,0,11.0,16.0,30,-99.99,,,-99.99,,2013-04-03 17:33:00,
2013-04-03 13:46:00,41.0,13.0,-100.00,NW,310,8.0,15.0,30,-99.99,,,-99.99,,2013-04-03 17:46:00,
2013-04-03 13:53:00,43.0,14.0,-100.00,North,5,9.0,16.0,29,-99.99,,,-99.99,,2013-04-03 17:53:00,
2013-04-03 14:02:00,43.0,13.0,-100.00,North,0,8.0,20.0,29,-99.99,,,-99.99,,2013-04-03 18:02:00,
2013-04-03 14:13:00,43.0,13.0,-100.00,WNW,300,9.0,14.0,29,-99.99,,,-99.99,,2013-04-03 18:13:00,
2013-04-03 14:22:00,43.0,13.0,-100.00,NNW,330,9.0,18.0,28,-99.99,,,-99.99,,2013-04-03 18:22:00,
2013-04-03 14:33:00,43.0,13.0,-100.00,NW,315,7.0,16.0,28,-99.99,,,-99.99,,2013-04-03 18:33:00,
2013-04-03 14:43:00,43.0,12.0,-100.00,NW,310,4.0,14.0,28,-99.99,,,-99.99,,2013-04-03 18:43:00,
2013-04-03 14:52:00,42.0,12.0,-100.00,NNE,20,7.0,14.0,28,-99.99,,,-99.99,,2013-04-03 18:52:00,
2013-04-03 15:03:00,42.0,12.0,-100.00,ENE,75,4.0,17.0,28,-99.99,,,-99.99,,2013-04-03 19:03:00,
2013-04-03 15:12:00,44.0,13.0,-100.00,NW,305,9.0,13.0,27,-99.99,,,-99.99,,2013-04-03 19:12:00,
2013-04-03 15:22:00,44.0,13.0,-100.00,North,0,6.0,12.0,27,-99.99,,,-99.99,,2013-04-03 19:22:00,
2013-04-03 15:32:00,45.0,13.0,-100.00,West,270,8.0,12.0,27,-99.99,,,-99.99,,2013-04-03 19:32:00,
2013-04-03 15:42:00,44.0,12.0,-100.00,NNW,330,4.0,13.0,26,-99.99,,,-99.99,,2013-04-03 19:42:00,
2013-04-03 15:52:00,45.0,12.0,-100.00,NNE,30,4.0,13.0,26,-99.99,,,-99.99,,2013-04-03 19:52:00,
2013-04-03 16:02:00,45.0,13.0,-100.00,NNW,340,6.0,12.0,26,-99.99,,,-99.99,,2013-04-03 20:02:00,
2013-04-03 16:12:00,45.0,13.0,-100.00,SE,135,2.0,11.0,26,-99.99,,,-99.99,,2013-04-03 20:12:00,
2013-04-03 16:23:00,46.0,13.0,-100.00,North,0,7.0,11.0,25,-99.99,,,-99.99,,2013-04-03 20:23:00,
2013-04-03 16:33:00,45.0,12.0,-100.00,North,0,6.0,10.0,25,-99.99,,,-99.99,,2013-04-03 20:33:00,
2013-04-03 16:42:00,45.0,12.0,-100.00,NNE,30,7.0,12.0,26,-99.99,,,-99.99,,2013-04-03 20:42:00,
2013-04-03 16:52:00,45.0,12.0,-100.00,NNE,30,7.0,12.0,26,-99.99,,,-99.99,,2013-04-03 20:52:00,
2013-04-03 17:02:00,45.0,12.0,-100.00,NNE,20,4.0,11.0,25,-99.99,,,-99.99,,2013-04-03 21:02:00,
2013-04-03 17:12:00,45.0,12.0,-100.00,North,0,4.0,9.0,25,-99.99,,,-99.99,,2013-04-03 21:12:00,
2013-04-03 17:22:00,46.0,13.0,-100.00,East,80,6.0,8.0,25,-99.99,,,-99.99,,2013-04-03 21:22:00,
2013-04-03 17:33:00,46.0,13.0,-100.00,ENE,60,3.0,10.0,26,-99.99,,,-99.99,,2013-04-03 21:33:00,
2013-04-03 17:42:00,47.0,14.0,-100.00,ENE,75,3.0,5.0,25,-99.99,,,-99.99,,2013-04-03 21:42:00,
2013-04-03 17:52:00,46.0,13.0,-100.00,North,355,5.0,11.0,25,-99.99,,,-99.99,,2013-04-03 21:52:00,
2013-04-03 18:02:00,45.0,12.0,-100.00,North,10,3.0,10.0,25,-99.99,,,-99.99,,2013-04-03 22:02:00,
2013-04-03 18:12:00,45.0,12.0,-100.00,North,10,4.0,11.0,25,-99.99,,,-99.99,,2013-04-03 22:12:00,
2013-04-03 18:22:00,45.0,12.0,-100.00,NW,325,2.0,9.0,25,-99.99,,,-99.99,,2013-04-03 22:22:00,
2013-04-03 18:33:00,46.0,12.0,-100.00,NW,305,3.0,6.0,25,-99.99,,,-99.99,,2013-04-03 22:33:00,
2013-04-03 18:42:00,46.0,12.0,-100.00,NE,45,3.0,9.0,25,-99.99,,,-99.99,,2013-04-03 22:42:00,
2013-04-03 18:52:00,44.0,12.0,-100.00,NE,45,6.0,10.0,26,-99.99,,,-99.99,,2013-04-03 22:52:00,
2013-04-03 19:02:00,45.0,12.0,-100.00,ENE,75,6.0,7.0,25,-99.99,,,-99.99,,2013-04-03 23:02:00,
2013-04-03 19:12:00,44.0,11.0,-100.00,NE,40,6.0,12.0,26,-99.99,,,-99.99,,2013-04-03 23:12:00,
2013-04-03 19:22:00,44.0,11.0,-100.00,ENE,65,5.0,7.0,26,-99.99,,,-99.99,,2013-04-03 23:22:00,
2013-04-03 19:32:00,44.0,11.0,-100.00,East,85,6.0,7.0,26,-99.99,,,-99.99,,2013-04-03 23:32:00,
2013-04-03 19:42:00,44.0,11.0,-100.00,ESE,105,4.0,7.0,26,-99.99,,,-99.99,,2013-04-03 23:42:00,
2013-04-03 19:53:00,42.0,10.0,-100.00,East,100,6.0,7.0,26,-99.99,,,-99.99,,2013-04-03 23:53:00,
2013-04-03 20:03:00,41.0,10.0,-100.00,ESE,115,4.0,7.0,27,-99.99,,,-99.99,,2013-04-04 00:03:00,
2013-04-03 20:12:00,40.0,9.0,-100.00,ESE,115,5.0,6.0,27,-99.99,,,-99.99,,2013-04-04 00:12:00,
2013-04-03 20:22:00,39.0,9.0,-100.00,SE,125,3.0,5.0,28,-99.99,,,-99.99,,2013-04-04 00:22:00,
2013-04-03 20:32:00,38.0,9.0,-100.00,SE,125,2.0,3.0,29,-99.99,,,-99.99,,2013-04-04 00:32:00,
2013-04-03 20:43:00,38.0,9.0,-100.00,SE,130,2.0,4.0,29,-99.99,,,-99.99,,2013-04-04 00:43:00,
2013-04-03 20:50:00,36.0,9.0,-100.00,SE,145,3.0,4.0,32,-99.99,,,-99.99,,2013-04-04 00:50:00,
2013-04-03 20:52:00,37.0,9.0,-100.00,SE,140,2.0,4.0,30,-99.99,,,-99.99,,2013-04-04 00:52:00,
2013-04-03 21:02:00,37.0,9.0,-100.00,SSE,150,2.0,4.0,31,-99.99,,,-99.99,,2013-04-04 01:02:00,
2013-04-03 21:12:00,36.0,9.0,-100.00,SE,145,3.0,4.0,32,-99.99,,,-99.99,,2013-04-04 01:12:00,
2013-04-03 21:22:00,36.0,9.0,-100.00,SE,145,3.0,4.0,32,-99.99,,,-99.99,,2013-04-04 01:22:00,
2013-04-03 21:32:00,36.0,9.0,-100.00,SE,145,3.0,4.0,32,-99.99,,,-99.99,,2013-04-04 01:32:00,
2013-04-03 21:43:00,36.0,9.0,-100.00,SE,145,3.0,4.0,32,-99.99,,,-99.99,,2013-04-04 01:43:00,
2013-04-03 22:12:00,32.0,9.0,-100.00,SE,140,1.0,2.0,37,-99.99,,,-99.99,,2013-04-04 02:12:00,
2013-04-03 22:22:00,32.0,10.0,-100.00,ESE,110,2.0,3.0,38,-99.99,,,-99.99,,2013-04-04 02:22:00,
2013-04-03 22:32:00,32.0,10.0,-100.00,ESE,120,4.0,4.0,39,-99.99,,,-99.99,,2013-04-04 02:32:00,
2013-04-03 22:42:00,32.0,10.0,-100.00,ESE,120,4.0,4.0,39,-99.99,,,-99.99,,2013-04-04 02:42:00,
2013-04-03 22:52:00,32.0,10.0,-100.00,ESE,120,4.0,4.0,39,-99.99,,,-99.99,,2013-04-04 02:52:00,
2013-04-03 23:02:00,32.0,11.0,-100.00,ESE,115,3.0,4.0,40,-99.99,,,-99.99,,2013-04-04 03:02:00,
2013-04-03 23:12:00,30.0,10.0,-100.00,ESE,120,1.0,2.0,42,-99.99,,,-99.99,,2013-04-04 03:12:00,
2013-04-03 23:22:00,30.0,10.0,-100.00,SSE,160,2.0,2.0,43,-99.99,,,-99.99,,2013-04-04 03:22:00,
2013-04-03 23:33:00,29.0,10.0,-100.00,SSE,165,2.0,2.0,44,-99.99,,,-99.99,,2013-04-04 03:33:00,
2013-04-03 23:45:00,29.0,10.0,-100.00,SSE,165,2.0,2.0,44,-99.99,,,-99.99,,2013-04-04 03:45:00,
2013-04-03 23:53:00,30.0,11.0,-100.00,SE,125,7.0,9.0,44,-99.99,,,-99.99,,2013-04-04 03:53:00,